Location: Allentsteig
(48.6833°N, 15.3167°E)
Time: 16:50:45
(UTC+00:00)

Cosmos 1300 Rocket - Pass Details

Date: 18 September 2020
Orbit: 601 x 627 km, 82.5° (Epoch: 29 October)

Event Time Altitude Azimuth Distance (km) Brightness Sun altitude
Rises 18:16:34 0° 175° (S) 2,876 6.8 -12.5°
Reaches altitude 10° 18:18:48 10° 171° (S) 1,979 5.9 -12.9°
Maximum altitude 18:23:04 53° 95° (E) 769 3.7 -13.6°
Drops below altitude 10° 18:27:24 10° 18° (NNE) 2,009 6.2 -14.2°
Sets 18:29:41 0° 14° (NNE) 2,923 7.1 -14.6°
